Location: Alfortville
(48.8058°N, 2.4204°E)
Time: 01:56:30
(UTC+00:00)

Envisat - Pass Details

Date: 05 December 2022
Orbit: 763 x 765 km, 98.2° (Epoch: 28 January)

Event Time Altitude Azimuth Distance (km) Brightness Sun altitude
Rises 03:05:06 0° 24° (NNE) 3,245 6.7 -42.0°
Reaches altitude 10° 03:07:52 10° 38° (NE) 2,313 5.9 -41.5°
Enters shadow 03:08:22 12° 42° (NE) 2,162 5.8 -41.5°
